Location: Silverdale
(47.6506°N, 122.6941°W)
Time: 19:37:29
(UTC+00:00)

Vanguard 2 - Pass Details

Date: 05 October 2022
Orbit: 553 x 2933 km, 32.9° (Epoch: 28 November)

Event Time Altitude Azimuth Distance (km) Brightness Sun altitude
Rises 03:42:59 0° 271° (W) 6,532 13.6 -20.7°
Reaches altitude 10° 03:50:08 10° 253° (WSW) 5,717 12.7 -21.9°
Maximum altitude 03:58:18 15° 225° (SW) 5,303 12.0 -23.2°
Drops below altitude 10° 04:06:19 10° 196° (SSW) 5,561 11.8 -24.5°
Sets 04:13:13 0° 177° (S) 6,252 11.9 -25.5°
